Regional Weather Roundup
Issued by NWS

Home | Current Version | Previous Version | Text Only | Print | Product List | Glossary On
Versions: 1 2 3 4 5 6 7 8 9 10 11 12 13 14 15 16 17 18 19 20 21 22 23 24 25 26 27 28 29 30 31 32 33 34 35 36 37 38 39 40 41 42 43 44 45 46 47 48 49 50
000
ASUS44 KOUN 191900
RWROK

WEATHER ROUNDUP FOR OKLAHOMA
NATIONAL WEATHER SERVICE NORMAN OK
200 PM CDT FRI SEP 19 2014

NOTE: "FAIR" INDICATES FEW OR NO CLOUDS BELOW 12,000 FEET WITH NO
      SIGNIFICANT WEATHER AND/OR OBSTRUCTIONS TO VISIBILITY.

OKZ001>007-009>012-014-015-017-192000-
NORTHWEST OKLAHOMA AND THE PANHANDLE

CITY           SKY/WX    TMP DP  RH WIND       PRES   REMARKS
GAGE           MOSUNNY   85  62  46 S12G21    29.99F
ENID/WOODRING  PTSUNNY   90  64  43 S17       29.97F HX  91
$$

OKZ016-021>023-033>039-044-045-192000-
SOUTHWEST OKLAHOMA

CITY           SKY/WX    TMP DP  RH WIND       PRES   REMARKS
LAWTON/REGL    MOSUNNY   86  64  47 S14       29.96F
LAWTON/FT SILL MOSUNNY   85  67  54 SE10      29.98S
FREDERICK      MOSUNNY   87  65  47 SE9G20    29.94F
CLINTON        PTSUNNY   87  62  43 S13G21    30.00F
HOBART         PTSUNNY   87  65  47 S15G22    29.97F
$$

OKZ018>020-024>031-192000-
CENTRAL OKLAHOMA

CITY           SKY/WX    TMP DP  RH WIND       PRES   REMARKS
OKLAHOMA CITY  MOSUNNY   86  65  49 S13       29.99F
OKC/WILEY POST MOSUNNY   85  66  53 S8G18     29.99F
OKC/TINKER AFB SUNNY     84  66  54 S12G18    29.99F
STILLWATER     MOSUNNY   84  70  62 S10       29.99F
GUTHRIE        MOSUNNY   86  67  52 S12       29.98F
$$

OKZ008-013-054>072-192000-
NORTHEAST OKLAHOMA

CITY           SKY/WX    TMP DP  RH WIND       PRES   REMARKS
TULSA          CLOUDY    75  69  81 S8        30.00F FOG
TULSA/JONES    CLOUDY    75  69  81 SE7       30.01F
PONCA CITY     MOSUNNY   83  68  60 S9        29.98F
BARTLESVILLE   CLOUDY    75  71  87 SE7       30.02F
MUSKOGEE       CLOUDY    76  69  79 SE9       30.03F
$$

OKZ032-040>043-046>053-073>077-192000-
SOUTH CENTRAL/SOUTHEAST OKLAHOMA

CITY           SKY/WX    TMP DP  RH WIND       PRES   REMARKS
MCALESTER      MOSUNNY   83  69  62 SE5       30.00F
$$



USA.gov is the U.S. government's official web portal to all federal, state and local government web resources and services.